Regional Weather Roundup
Issued by NWS

Home | Current Version | Previous Version | Graphics & Text | Print | Product List | Glossary On
Versions: 1 2 3 4 5 6 7 8 9 10 11 12 13 14 15 16 17 18 19 20 21 22 23 24 25 26 27 28 29 30 31 32 33 34 35 36 37 38 39 40 41 42 43 44 45 46 47 48 49 50
927
ASUS43 KIND 021559
RWRIN

WEATHER ROUNDUP FOR INDIANA
NATIONAL WEATHER SERVICE INDIANAPOLIS IN
1100 AM EST FRI DEC 02 2016

NOTE: "FAIR" INDICATES FEW OR NO CLOUDS BELOW 12,000 FEET WITH NO
SIGNIFICANT WEATHER AND/OR OBSTRUCTIONS TO VISIBILITY.

* - STATION DOES NOT REPORT WEATHER SUCH AS PRECIPITATION OR FOG.

+ - STATION NOT QUALITY CONTROLLED BY THE NATIONAL WEATHER SERVICE.
    USE DATA WITH CAUTION...ESPECIALLY DEWPOINT AND RELATIVE
    HUMIDITY OBSERVATIONS.

INZ001>003-010>013-019-020-021700-
NORTHWEST INDIANA

CITY           SKY/WX    TMP DP  RH WIND       PRES   REMARKS
GARY /AIRPORT/ CLOUDY    41  32  70 W7        30.16R
MONTICELLO +   CLOUDY    37  31  77 W9        30.18R

$$

LMZ046-743>745-021700-
SOUTHERN LAKE MICHIGAN

STATION/POSITION TIME  TEMP    WIND        PRES    WAVE
                       AIR SEA DIR/SP/G            HT
                 (UTC) (F)     (DEG/KT/KT) (MB)    (FT)
BURNS HARBOR     1540   40     260/ 14/ 18 1021.3R
MICHIGAN CITY    1530   39     240/ 19/ 22   N/A

$$

INZ004-005-014>016-021>024-021700-
NORTH CENTRAL INDIANA

CITY           SKY/WX    TMP DP  RH WIND       PRES   REMARKS
ELKHART        DRIZZLE   36  32  87 W9        30.12R
GOSHEN         CLOUDY    38  31  76 W14       30.12R
PERU/GRISSOM   CLOUDY    37  34  87 W9        30.15R
SOUTH BEND     CLOUDY    36  32  85 NW8       30.14R
WARSAW +       CLOUDY    36  32  87 W9        30.14R

$$

INZ006>009-017-018-025>027-021700-
NORTHEAST INDIANA

CITY           SKY/WX    TMP DP  RH WIND       PRES   REMARKS
ANGOLA *+      CLOUDY    37  34  87 W10       30.09R
FORT WAYNE     CLOUDY    37  33  85 W13       30.14R
KENDALLVILLE + CLOUDY    37  33  87 W15       30.11R

$$

INZ028-029-035-036-043>045-051>053-021700-
WEST CENTRAL INDIANA

CITY           SKY/WX    TMP DP  RH WIND       PRES   REMARKS
CRAWFORDSVL +  CLOUDY    36  32  87 W8        30.21R
GREENCASTLE +  CLOUDY    36  32  87 W6        30.22R
LAFAYETTE      CLOUDY    38  33  82 W9        30.20R
TERRE HAUTE    CLOUDY    39  30  70 W8        30.24R

$$

INZ030>032-037>040-046>048-054>057-064-065-021700-
CENTRAL INDIANA

CITY           SKY/WX    TMP DP  RH WIND       PRES   REMARKS
COLUMBUS       CLOUDY    37  32  81 SW9       30.23R
GREENWOOD *+   CLOUDY    38  32  79 W10       30.21R
INDIANAPOLIS   CLOUDY    38  30  73 W13       30.21R
-EAGLE CREEK   CLOUDY    38  30  73 W12       30.20R
KOKOMO +       CLOUDY    38  33  82 W14       30.18R
SHELBYVILLE    CLOUDY    39  30  70 W12       30.20R
ZIONSVILLE +   CLOUDY    36  32  85 W13       30.19R

$$

INZ033-034-041-042-049-050-058-059-021700-
EAST CENTRAL INDIANA

CITY           SKY/WX    TMP DP  RH WIND       PRES   REMARKS
MUNCIE         CLOUDY    38  32  79 W13       30.17R

$$

INZ060-061-067>069-081>083-085>088-021700-
SOUTHWEST INDIANA

CITY           SKY/WX    TMP DP  RH WIND       PRES   REMARKS
EVANSVILLE     SUNNY     42  31  64 NW6       30.29R
HUNTINGBURG *+ MOSUNNY   39  32  76 VRB5      30.28R

$$

INZ062-063-066-070>080-084-089>092-021700-
SOUTH CENTRAL AND SOUTHEAST INDIANA

CITY           SKY/WX    TMP DP  RH WIND       PRES   REMARKS
BLOOMINGTON    CLOUDY    38  29  70 SW7       30.23R
MADISON *+     CLOUDY    34  30  86 W6        30.26R WCI  29
SEYMOUR +      CLOUDY    37  32  81 SW8       30.24

$$





USA.gov is the U.S. government's official web portal to all federal, state and local government web resources and services.